Location: Unspecified
(58.9933°N, 5.6375°E)
Time: 10:34:15
(UTC+02:00)

Resurs 1-4 Rocket - Visible Passes

Search period start: 02 September 2015 00:00
Search period end: 12 September 2015 00:00
Orbit: 799 x 815 km, 98.4° (Epoch: 01 September)

Date Brightness Start Highest point End Pass type
(mag) Time Alt. Az. Time Alt. Az. Time Alt. Az.
02 Sep 4.4 03:45:42 10° NE 03:49:26 20° E 03:53:17 10° SE visible
02 Sep 2.2 05:24:51 10° NNE 05:30:11 83° ESE 05:35:30 10° SSW visible
03 Sep 4.7 03:21:58 10° NE 03:24:28 14° E 03:27:11 10° ESE visible
03 Sep 2.7 05:00:22 10° NNE 05:05:36 58° E 05:10:50 10° S visible
04 Sep 3.3 04:35:57 10° NNE 04:40:56 41° E 04:45:56 10° SSE visible
05 Sep 3.9 04:11:38 10° NNE 04:16:11 29° E 04:20:47 10° SSE visible
05 Sep 2.2 05:51:16 10° NNE 05:56:33 69° WNW 06:01:49 10° SSW visible
06 Sep 4.4 03:47:30 10° NE 03:51:20 20° E 03:55:17 10° SE visible
06 Sep 2.2 05:26:43 10° NNE 05:32:03 85° ESE 05:37:23 10° SSW visible
07 Sep 4.6 03:23:43 10° NE 03:26:24 14° E 03:29:16 10° ESE visible
07 Sep 2.6 05:02:13 10° NNE 05:07:29 61° ESE 05:12:44 10° S visible
08 Sep 3.2 04:37:48 10° NNE 04:42:50 42° E 04:47:52 10° SSE visible
09 Sep 3.8 04:13:28 10° NNE 04:18:05 30° E 04:22:44 10° SSE visible
09 Sep 2.2 05:53:08 10° NNE 05:58:25 67° WNW 06:03:41 10° SSW visible
10 Sep 4.3 03:49:19 10° NE 03:53:15 21° E 03:57:17 10° SE visible
10 Sep 2.2 05:28:35 10° NNE 05:33:56 88° ESE 05:39:16 10° SSW visible
11 Sep 4.6 03:25:29 10° NE 03:28:19 15° E 03:31:19 10° ESE visible
11 Sep 2.6 05:04:05 10° NNE 05:09:22 63° ESE 05:14:38 10° S visible
